Regional Weather Roundup
Issued by NWS Charleston, WV

Home | Current Version | Previous Version | Graphics & Text | Print | Product List | Glossary On
Versions: 1 2 3 4 5 6 7 8 9 10 11 12 13 14 15 16 17 18 19 20 21 22 23 24 25 26 27 28 29 30 31 32 33 34 35 36 37 38 39 40 41 42 43 44 45 46 47 48 49 50
555
ASUS41 KRLX 190510
RWRRLX
West Virginia Regional Weather Roundup
National Weather Service Charleston WV
1200 AM EST SUN FEB 19 2017

Note: "fair" indicates few or no clouds below 12,000 feet with no
significant weather and/or obstructions to visibility.

WVZ003-190600-
Northern Panhandle of West Virginia

CITY           SKY/WX    TMP DP  RH WIND       PRES   REMARKS
WHEELING       PTCLDY    50  41  71 SW8       29.86R
$$

WVZ009-190600-
Northwest West Virginia

CITY           SKY/WX    TMP DP  RH WIND       PRES   REMARKS
PARKERSBURG    CLOUDY    48  44  86 W8        29.93R
$$

WVZ006-190600-
Western West Virginia

CITY           SKY/WX    TMP DP  RH WIND       PRES   REMARKS
HUNTINGTON     LGT RAIN  47  45  93 CALM      29.93R
$$

WVZ015-190600-
West Central West Virginia

CITY           SKY/WX    TMP DP  RH WIND       PRES   REMARKS
CHARLESTON     RAIN      47  44  90 S5        29.93S
$$

WVZ022-031-190600-
North Central West Virginia

CITY           SKY/WX    TMP DP  RH WIND       PRES   REMARKS
CLARKSBURG     CLOUDY    51  40  65 SW7       29.90R
MORGANTOWN     CLOUDY    52  41  66 CALM      29.90R
$$

WVZ025-035-042-045-190600-
Southern West Virginia

CITY           SKY/WX    TMP DP  RH WIND       PRES   REMARKS
BECKLEY        CLOUDY    47  32  56 CALM      29.92R
LOGAN          CLOUDY    48  41  76 CALM      29.93S
BLUEFIELD      MOCLDY    47  28  47 W6        29.93R
LEWISBURG      CLOUDY    46  33  60 CALM      29.89S
$$

WVZ047-190600-
Northern Mountains of West Virginia

CITY           SKY/WX    TMP DP  RH WIND       PRES   REMARKS
ELKINS         LGT RAIN  46  41  82 CALM      29.91R
$$

WVZ052-190600-
Eastern Panhandle of West Virginia

CITY           SKY/WX    TMP DP  RH WIND       PRES   REMARKS
MARTINSBURG    CLOUDY    61  35  37 W10       29.78F
PETERSBURG     LGT RAIN  62  44  50 S7        29.83S
$$




USA.gov is the U.S. government's official web portal to all federal, state and local government web resources and services.